Location: Peterborough
(44.3091°N, 78.3197°W)
Time: 04:39:20
(UTC-04:00)

Tiros 1 - Pass Details

Date: 03 April 2023
Orbit: 627 x 661 km, 48.4° (Epoch: 09 June)

Event Time Altitude Azimuth Distance (km) Brightness Sun altitude
Rises 08:10:56 0° 292° (WNW) 2,992 10.0 13.4°
Reaches altitude 10° 08:13:17 10° 292° (WNW) 2,079 9.2 13.8°
Maximum altitude 08:18:05 78° 207° (SSW) 679 7.5 14.7°
Drops below altitude 10° 08:22:51 10° 121° (ESE) 2,066 11.2 15.5°
Sets 08:25:11 0° 120° (ESE) 2,972 11.9 16.0°
